TimeEEST,TemperatureF,Dew PointF,Humidity,Sea Level PressureIn,VisibilityMPH,Wind Direction,Wind SpeedMPH,Gust SpeedMPH,PrecipitationIn,Events,Conditions,WindDirDegrees,DateUTC
12:50 AM,62.6,51.8,68,30.04,-9999.0,Calm,Calm,-,N/A,,Clear,0,2012-10-12 21:50:00
1:50 AM,62.6,51.8,68,30.04,-9999.0,Calm,Calm,-,N/A,,Clear,0,2012-10-12 22:50:00
2:50 AM,62.6,53.6,72,30.04,-9999.0,Calm,Calm,-,N/A,,Clear,0,2012-10-12 23:50:00
3:00 AM,62,53,65,30.04,6,Calm,Calm,,,,,,2012-10-13 00:00:00
3:50 AM,62.6,55.4,77,30.01,-9999.0,Calm,Calm,-,N/A,,Clear,0,2012-10-13 00:50:00
4:20 AM,62.6,55.4,77,30.01,-9999.0,Variable,3.5,-,N/A,,Clear,0,2012-10-13 01:20:00
4:50 AM,60.8,55.4,82,30.01,-9999.0,Calm,Calm,-,N/A,,Clear,0,2012-10-13 01:50:00
5:50 AM,62.6,55.4,77,30.04,-9999.0,Calm,Calm,-,N/A,,Clear,0,2012-10-13 02:50:00
6:20 AM,62.6,55.4,77,30.04,-9999.0,Calm,Calm,-,N/A,,Clear,0,2012-10-13 03:20:00
7:20 AM,62.6,55.4,77,30.04,-9999.0,SSW,4.6,-,N/A,,Clear,200,2012-10-13 04:20:00
7:50 AM,62.6,55.4,77,30.04,-9999.0,SSW,4.6,-,N/A,,Clear,200,2012-10-13 04:50:00
8:20 AM,64.4,53.6,68,30.01,-9999.0,SSW,4.6,-,N/A,,Clear,200,2012-10-13 05:20:00
8:50 AM,66.2,55.4,68,30.04,-9999.0,South,4.6,-,N/A,,Clear,190,2012-10-13 05:50:00
9:00 AM,67,56,58,30.05,6,South,4.6,,,,,190,2012-10-13 06:00:00
9:20 AM,68.0,53.6,60,30.04,-9999.0,SE,5.8,-,N/A,,Clear,140,2012-10-13 06:20:00
9:50 AM,69.8,53.6,56,30.04,-9999.0,SSE,6.9,-,N/A,,Clear,150,2012-10-13 06:50:00
10:20 AM,71.6,55.4,57,30.04,-9999.0,SE,5.8,-,N/A,,Clear,140,2012-10-13 07:20:00
10:50 AM,71.6,57.2,60,30.04,-9999.0,SSE,6.9,-,N/A,,Clear,150,2012-10-13 07:50:00
11:20 AM,73.4,59.0,61,30.04,-9999.0,SE,8.1,-,N/A,,Clear,130,2012-10-13 08:20:00
11:50 AM,73.4,59.0,61,30.04,-9999.0,SE,9.2,-,N/A,,Clear,130,2012-10-13 08:50:00
12:20 PM,75.2,59.0,57,30.04,-9999.0,ESE,9.2,-,N/A,,Clear,120,2012-10-13 09:20:00
12:50 PM,75.2,59.0,57,30.04,-9999.0,ESE,9.2,-,N/A,,Clear,120,2012-10-13 09:50:00
1:20 PM,75.2,59.0,57,30.04,-9999.0,ESE,9.2,-,N/A,,Clear,120,2012-10-13 10:20:00
1:50 PM,77.0,59.0,54,30.01,-9999.0,ESE,9.2,-,N/A,,Clear,120,2012-10-13 10:50:00
2:20 PM,77.0,59.0,54,30.01,6.2,SSE,6.9,-,N/A,,Scattered Clouds,150,2012-10-13 11:20:00
2:50 PM,80.6,59.0,48,30.01,6.2,South,10.4,-,N/A,,Scattered Clouds,170,2012-10-13 11:50:00
3:00 PM,80,59,38,30.02,12,South,10.4,,,,Scattered Clouds,170,2012-10-13 12:00:00
3:20 PM,80.6,59.0,48,30.01,6.2,South,9.2,-,N/A,,Scattered Clouds,170,2012-10-13 12:20:00
3:50 PM,78.8,59.0,51,30.01,6.2,SSE,8.1,-,N/A,,Mostly Cloudy,160,2012-10-13 12:50:00
4:20 PM,78.8,59.0,51,30.01,6.2,SSE,5.8,-,N/A,,Mostly Cloudy,160,2012-10-13 13:20:00
4:50 PM,80.6,60.8,51,29.98,6.2,SSE,4.6,-,N/A,,Scattered Clouds,160,2012-10-13 13:50:00
5:20 PM,78.8,60.8,54,29.98,6.2,Variable,3.5,-,N/A,,Scattered Clouds,0,2012-10-13 14:20:00
5:50 PM,78.8,60.8,54,29.98,6.2,Calm,Calm,-,N/A,,Partly Cloudy,0,2012-10-13 14:50:00
6:20 PM,77.0,60.8,57,29.98,6.2,Calm,Calm,-,N/A,,Partly Cloudy,0,2012-10-13 15:20:00
6:50 PM,75.2,62.6,65,29.98,6.2,Calm,Calm,-,N/A,,Partly Cloudy,0,2012-10-13 15:50:00
7:20 PM,75.2,62.6,65,29.98,-9999.0,Calm,Calm,-,N/A,,Clear,0,2012-10-13 16:20:00
7:50 PM,73.4,62.6,69,29.98,-9999.0,SW,5.8,-,N/A,,Clear,230,2012-10-13 16:50:00
8:20 PM,73.4,62.6,69,29.98,-9999.0,Variable,3.5,-,N/A,,Clear,0,2012-10-13 17:20:00
8:50 PM,73.4,64.4,73,29.98,-9999.0,South,4.6,-,N/A,,Clear,190,2012-10-13 17:50:00
9:00 PM,73,64,65,30.00,12,South,4.6,,,,,190,2012-10-13 18:00:00
9:20 PM,73.4,64.4,73,30.01,-9999.0,Variable,3.5,-,N/A,,Clear,0,2012-10-13 18:20:00
9:50 PM,71.6,64.4,78,30.01,-9999.0,Calm,Calm,-,N/A,,Clear,0,2012-10-13 18:50:00
10:20 PM,71.6,64.4,78,30.01,-9999.0,Calm,Calm,-,N/A,,Clear,0,2012-10-13 19:20:00
10:50 PM,71.6,64.4,78,30.01,6.2,Variable,2.3,-,N/A,,Partly Cloudy,0,2012-10-13 19:50:00
11:20 PM,71.6,64.4,78,30.01,6.2,Variable,2.3,-,N/A,,Partly Cloudy,0,2012-10-13 20:20:00
11:50 PM,71.6,64.4,78,30.01,6.2,Calm,Calm,-,N/A,,Partly Cloudy,0,2012-10-13 20:50:00